Wind_Speed
83 87 90 92 95 97 99 102 103 103 108 119 119 115 118 113 110 109 110 113 117 121 124 126 127 129 129 128 128 129 128 126 125 124 124 124 123 118
88 92 95 96 100 103 106 111 116 118 115 112 112 111 109 111 113 116 121 123 126 125 121 117 113 112 116 119 120 118 117 118 118 118 120 122 123 122
94 96 99 101 105 109 114 119 123 120 112 102 107 111 114 118 122 126 125 121 117 114 108 104 103 105 102 102 103 103 104 104 104 104 106 107 109 111
97 99 102 106 111 116 120 122 115 114 110 107 111 117 122 128 131 126 116 111 102 99 97 97 98 95 94 94 95 95 95 94 95 95 95 95 96 98
100 103 107 112 117 121 117 112 106 110 117 120 119 124 127 129 120 113 104 98 94 90 88 89 86 84 84 84 85 84 84 85 85 85 85 86 87 88
105 109 114 119 118 111 105 105 112 118 123 125 127 129 122 114 106 98 93 89 84 82 83 81 76 75 73 74 75 76 76 75 74 73 74 75 76 79
111 116 118 112 106 102 107 113 120 126 127 128 128 117 109 101 94 89 84 82 77 74 78 71 69 68 65 65 66 69 70 67 65 64 66 67 69 71
116 113 107 99 104 109 116 123 129 131 131 122 112 102 96 91 89 84 80 75 74 65 72 63 64 59 60 58 57 57 59 61 59 56 57 60 62 64
108 102 100 105 111 117 123 130 134 133 119 109 100 93 91 85 83 81 75 69 63 60 63 59 56 51 50 47 48 50 52 51 49 49 50 52 55 57
97 101 106 112 120 124 127 131 127 116 107 100 94 90 83 80 76 73 68 65 55 48 51 50 50 43 45 42 41 41 42 43 43 43 45 47 48 50
102 108 116 122 127 128 128 117 110 104 98 93 88 82 78 71 67 65 60 54 51 43 45 44 44 38 41 38 36 35 34 36 38 39 40 42 43 44
109 118 124 128 129 127 112 104 101 98 93 87 81 75 69 63 57 54 51 50 47 44 42 40 38 39 31 34 32 32 32 33 33 35 36 37 38 41
116 124 127 129 122 108 102 99 95 91 85 80 74 68 62 55 48 45 44 44 47 38 40 40 37 34 33 29 30 28 29 29 30 31 32 33 34 35
123 128 129 117 105 102 98 94 88 81 77 70 66 61 55 49 44 41 42 40 41 39 36 35 34 31 29 28 27 25 25 25 25 26 27 28 28 29
129 130 114 104 101 97 90 84 79 72 67 63 59 52 49 47 45 38 35 35 36 35 32 32 31 29 27 26 24 21 20 22 21 21 23 24 22 22
127 114 104 99 94 87 81 76 70 65 61 58 53 48 46 40 39 36 31 28 28 32 33 28 27 24 23 23 18 16 18 17 18 18 18 16 16 17
108 99 95 89 81 77 71 65 63 58 55 51 49 45 42 40 40 41 37 29 29 27 30 27 23 19 20 18 14 14 15 14 15 14 14 16 15 13
96 91 85 78 75 70 64 58 53 50 48 47 44 43 44 44 41 38 38 35 28 30 28 24 20 14 17 13 11 11 11 11 11 11 13 12 9 6
88 81 76 72 67 61 57 52 50 47 45 44 46 47 46 43 39 35 31 31 28 26 24 20 17 11 13 11 7 7 7 8 8 8 8 5 5 4
77 72 69 63 58 53 49 47 46 45 47 49 49 48 43 38 31 28 26 24 20 21 19 15 13 8 9 8 4 4 4 5 6 4 3 5 6 5
70 65 60 55 50 47 44 43 46 49 51 50 45 40 34 29 24 23 21 23 18 18 15 11 8 5 5 4 2 2 2 4 4 3 6 8 8 10
63 58 54 49 45 40 40 44 48 48 45 42 39 34 26 21 20 22 20 21 18 15 12 9 6 4 5 4 4 4 5 4 4 7 10 11 8 15
54 51 46 42 38 39 43 46 46 43 40 36 33 29 22 18 16 16 16 14 14 13 9 7 7 7 7 6 8 9 8 7 7 11 14 14 13 18
Wind_Direction
293 293 293 294 294 294 295 295 295 295 297 296 296 295 295 294 293 292 292 291 290 288 285 283 283 282 280 277 274 272 271 269 267 265 263 260 259 256
295 295 295 295 296 297 298 298 299 299 300 298 297 295 294 294 295 296 296 293 290 288 287 285 282 279 276 275 275 274 273 271 269 267 265 263 261 258
296 296 296 297 298 299 300 300 301 301 300 298 296 296 298 299 300 298 294 294 292 291 290 287 284 280 279 278 276 274 273 271 270 267 265 262 259 257
298 299 299 299 300 301 301 303 303 301 298 298 299 299 302 302 299 298 298 295 294 292 289 286 283 283 282 279 277 275 273 271 269 267 266 263 260 258
299 300 300 301 302 303 303 303 301 300 301 301 303 305 303 300 301 300 298 296 294 292 288 285 284 283 281 279 277 275 273 271 269 267 265 263 261 258
300 301 302 303 304 304 302 301 302 300 300 305 308 306 304 303 301 299 298 297 296 294 290 288 289 285 282 281 279 277 275 273 271 269 266 262 260 257
302 303 304 305 303 302 304 301 301 302 306 309 306 305 303 303 302 301 301 299 298 297 292 292 290 285 285 280 278 279 278 274 270 267 264 261 258 255
303 304 303 302 305 303 304 304 303 308 308 307 306 306 305 306 305 304 303 302 300 298 293 295 289 290 287 286 283 278 275 275 274 269 265 261 258 255
303 302 304 304 304 305 304 306 308 309 309 308 309 309 308 307 306 305 304 302 301 298 295 295 293 292 287 286 282 281 278 277 275 272 267 262 260 257
303 304 304 306 305 305 308 310 308 308 308 310 310 309 308 308 306 304 303 302 302 298 297 298 298 298 293 289 284 280 280 279 275 272 268 266 262 259
304 307 307 306 306 308 311 310 309 309 310 310 310 309 309 307 306 304 304 303 303 302 298 300 299 299 296 293 291 287 282 278 275 273 270 267 265 261
307 306 305 307 310 313 311 310 310 310 310 310 309 309 308 307 306 305 305 306 305 306 301 301 302 301 296 296 293 291 287 282 279 274 271 268 265 263
306 304 307 311 313 312 311 311 311 310 310 310 310 309 308 306 306 305 305 305 304 305 305 305 305 304 302 303 297 291 287 285 281 277 274 270 266 263
305 307 312 315 314 312 312 311 310 310 310 310 309 309 309 308 308 309 307 306 304 308 308 306 304 304 304 303 296 291 291 285 278 279 277 274 273 269
309 313 315 315 313 312 311 311 310 311 310 308 308 308 309 310 309 309 308 307 304 307 310 307 304 304 305 301 295 292 289 284 282 279 277 277 275 274
312 315 315 313 312 312 312 311 312 311 310 310 311 311 309 309 308 310 310 307 304 304 307 305 300 302 305 298 296 293 293 289 287 285 288 294 297 288
314 314 313 312 313 312 311 312 311 311 310 310 310 310 311 311 311 309 308 305 299 298 304 306 301 302 302 295 297 297 292 297 299 302 313 315 303 287
315 314 314 314 314 313 313 313 311 310 309 309 312 313 314 313 311 306 302 298 293 290 297 302 298 300 299 292 296 299 298 301 309 321 323 306 306 317
314 315 315 315 315 315 315 314 313 312 312 314 316 315 313 311 307 302 298 293 289 282 285 292 291 293 295 286 288 297 296 315 330 336 322 329 9 20
316 316 316 316 317 317 317 315 315 316 317 316 315 314 313 310 302 297 297 291 288 275 276 281 283 286 284 265 283 286 322 332 354 337 0 40 63 79
318 319 317 318 320 320 320 319 320 319 317 314 314 314 313 310 304 299 289 283 286 272 269 275 266 265 253 243 219 220 37 16 18 69 68 65 90 105
321 319 319 321 322 323 323 323 321 318 316 316 317 318 316 311 304 298 288 280 273 265 262 259 231 215 206 191 168 143 95 75 81 97 88 79 100 116
321 320 321 323 325 326 327 325 325 325 323 323 321 321 318 314 307 299 293 283 262 252 244 219 190 185 175 158 146 134 114 113 108 109 98 96 105 120
Height
10557 10548 10539 10530 10520 10512 10503 10494 10488 10491 10482 10452 10431 10412 10396 10383 10370 10362 10354 10346 10332 10319 10308 10298 10287 10272 10261 10255 10249 10245 10245 10248 10252 10256 10261 10268 10272 10285
10536 10525 10516 10506 10495 10485 10475 10462 10450 10440 10444 10414 10402 10381 10366 10352 10338 10328 10314 10299 10284 10268 10261 10252 10242 10232 10214 10203 10202 10203 10204 10202 10204 10208 10212 10218 10226 10237
10514 10504 10493 10483 10470 10457 10445 10429 10415 10399 10395 10394 10366 10351 10335 10317 10302 10287 10269 10255 10238 10223 10213 10203 10192 10178 10179 10174 10167 10161 10159 10159 10160 10164 10168 10173 10179 10188
10491 10480 10469 10456 10442 10428 10413 10397 10382 10363 10349 10352 10342 10321 10300 10280 10259 10242 10228 10208 10202 10191 10179 10165 10152 10150 10143 10135 10128 10126 10125 10124 10124 10125 10129 10135 10139 10145
10469 10457 10443 10429 10414 10399 10382 10368 10350 10333 10316 10304 10303 10286 10266 10239 10225 10204 10192 10178 10166 10156 10144 10131 10127 10121 10112 10105 10097 10094 10092 10090 10089 10092 10096 10100 10105 10111
10444 10431 10417 10402 10387 10370 10353 10338 10323 10304 10287 10276 10261 10241 10219 10200 10186 10175 10158 10145 10137 10123 10109 10102 10100 10091 10087 10078 10070 10064 10062 10062 10064 10065 10066 10070 10074 10079
10417 10403 10388 10373 10357 10341 10327 10310 10290 10272 10259 10247 10223 10202 10183 10167 10152 10141 10131 10117 10109 10099 10078 10082 10070 10065 10062 10054 10048 10040 10037 10037 10038 10039 10038 10040 10044 10049
10394 10377 10363 10347 10333 10314 10297 10277 10251 10237 10228 10209 10189 10172 10151 10139 10121 10110 10102 10093 10080 10080 10056 10062 10048 10047 10035 10031 10026 10021 10017 10013 10013 10014 10014 10015 10019 10024
10367 10352 10340 10323 10307 10292 10270 10246 10221 10198 10183 10172 10157 10141 10126 10113 10097 10084 10077 10071 10066 10053 10038 10036 10029 10027 10019 10015 10007 10002 9998 9997 9996 9994 9993 9995 9996 10000
10342 10327 10313 10298 10275 10259 10244 10221 10192 10172 10158 10143 10129 10115 10104 10092 10078 10065 10055 10046 10047 10039 10026 10018 10011 10011 10003 9998 9992 9989 9985 9981 9979 9978 9977 9976 9978 9981
10316 10300 10284 10267 10246 10232 10215 10189 10165 10148 10132 10119 10107 10093 10082 10072 10059 10046 10039 10031 10024 10024 10013 10007 9999 9998 9988 9984 9978 9975 9972 9968 9966 9964 9963 9962 9962 9963
10297 10274 10253 10236 10219 10201 10179 10159 10141 10124 10109 10096 10086 10074 10063 10053 10044 10033 10024 10016 10011 10004 10001 9995 9989 9980 9980 9970 9967 9963 9960 9957 9955 9952 9950 9950 9949 9948
10271 10247 10229 10211 10189 10168 10148 10132 10117 10101 10087 10075 10063 10052 10045 10038 10031 10022 10014 10006 9996 9997 9987 9980 9976 9972 9964 9961 9957 9953 9950 9948 9944 9941 9939 9938 9937 9936
10239 10217 10202 10180 10160 10140 10124 10107 10093 10081 10068 10056 10046 10036 10028 10021 10017 10011 10002 9996 9987 9982 9977 9972 9967 9962 9957 9951 9947 9945 9941 9938 9934 9932 9929 9928 9927 9926
10207 10188 10170 10152 10134 10118 10103 10086 10074 10062 10050 10039 10031 10023 10015 10007 10000 9997 9992 9986 9979 9972 9970 9963 9959 9954 9949 9944 9940 9938 9934 9930 9926 9924 9921 9919 9918 9916
10185 10165 10147 10130 10114 10097 10082 10067 10054 10043 10032 10023 10016 10011 10003 9998 9990 9984 9981 9977 9973 9967 9961 9957 9952 9948 9943 9938 9936 9932 9928 9923 9921 9918 9915 9912 9909 9907
10166 10146 10129 10111 10096 10081 10068 10053 10039 10029 10019 10012 10004 9998 9992 9985 9980 9973 9969 9967 9962 9959 9954 9949 9945 9941 9938 9935 9931 9927 9923 9919 9917 9914 9910 9907 9904 9901
10142 10125 10108 10091 10076 10061 10050 10040 10029 10018 10010 10001 9995 9987 9980 9973 9968 9963 9957 9953 9951 9946 9944 9941 9938 9936 9933 9931 9927 9923 9919 9916 9914 9912 9908 9904 9901 9898
10121 10106 10089 10074 10060 10047 10035 10025 10015 10008 9999 9991 9983 9976 9969 9962 9955 9950 9947 9942 9939 9937 9935 9934 9933 9932 9930 9926 9923 9921 9917 9915 9913 9911 9907 9904 9900 9898
10104 10087 10073 10059 10046 10035 10025 10014 10005 9997 9988 9979 9971 9963 9956 9950 9945 9939 9936 9933 9931 9929 9928 9929 9929 9928 9927 9924 9921 9920 9916 9914 9914 9911 9907 9904 9902 9901
10085 10072 10057 10046 10036 10026 10016 10006 9995 9985 9976 9967 9960 9953 9946 9939 9934 9931 9928 9925 9925 9923 9923 9925 9925 9925 9924 9922 9921 9919 9916 9915 9915 9913 9909 9907 9906 9905
10070 10058 10046 10036 10027 10018 10008 9998 9988 9977 9967 9957 9949 9942 9936 9931 9926 9922 9920 9918 9918 9918 9920 9921 9922 9923 9923 9921 9921 9920 9918 9918 9918 9916 9912 9912 9913 9910
10059 10047 10037 10029 10021 10011 10001 9991 9979 9968 9957 9948 9940 9934 9928 9924 9920 9916 9914 9913 9912 9913 9916 9918 9920 9921 9922 9922 9922 9922 9920 9920 9921 9920 9917 9918 9920 9917